Погода в Кожикоде

Индия     11°15′18″N   75°47′01″E
темп.,
°C
ветер,
м/с
пор.,
м/с
влажн.,
%
обл.,
%
осадки,
мм/ч
давл.,
гПа
погр.,
м
21 июня, пн
пн2123:30+25ссз2385100 0.9 1013205
02:30+25сз238996 1.6 1011170
05:30+25сз238798 4.4 1011214
08:30+26сз2382100 3.2 1012241
11:30+28зсз3477100 5.9 1012565
14:30+28зсз567314 0.3 1010775
17:30+28зсз467772 0.3 1009756
20:30+26сз468537 0.3 1011420
22 июня, вт
вт2223:30+26сз478695 0.3 1011476
02:30+26ссз4786100 0.0 1009487
05:30+25ссз4788100 0.1 1010439
08:30+26ссз4783100 0.2 1011563
11:30+28сз5676100 0.3 1011881
14:30+28зсз6776100 0.7 1009822
17:30+27сз6880100 0.9 1009781
20:30+26сз5886100 0.0 1011629
23 июня, ср
ср2323:30+26сз5887100 0.1 1011622
02:30+26сз5887100 0.1 1009574
05:30+25ссз468986 0.2 1009391
08:30+26ссз3583100 0.1 1011471
11:30+28зсз4575100 0.1 1011811
14:30+28зсз5675100 0.1 1009816
17:30+27зсз5780100 0.4 1010696
20:30+26сз4686100 1.0 1012427
24 июня, чт
чт2423:30+26сз4687100 1.3 1012463
02:30+26сз468691 0.2 1010465
05:30+25ссз468750 0.3 1010433
08:30+27ссз358122 0.3 1012536
11:30+28зсз567476 0.3 1012886
14:30+28зсз6775100 0.9 1010854
17:30+27зсз5882100 2.6 1010654
20:30+26сз4786100 1.3 1012436
25 июня, пт
пт2523:30+26сз5885100 2.4 1012505
02:30+25ссз4788100 0.3 1009443
05:30+25ссз368986 0.3 1009311
08:30+26сз468163 0.0 1011556
11:30+28сз577394 0.0 1010879
14:30+28зсз6874100 0.3 1008771
17:30+27сз698099 0.8 1009778
20:30+26сз588658 1.3 1010465